, LA

(GMT )
Atlantis

Weather History for KATP - December, 2013

Change the Weather History Date:

Sunday, December 22, 2013

  Actual Average Record
Temperature  
Mean Temperature 70 °F -  
Max Temperature 77 °F - - ()
Min Temperature 64 °F - - ()
Cooling Degree Days 6    
Growing Degree Days 20 (Base 50)    
Moisture  
Dew Point 72 °F    
Average Humidity 93    
Maximum Humidity 94    
Minimum Humidity 88    
Precipitation  
Precipitation 0.00 in - - ()
Sea Level Pressure  
Sea Level Pressure 30.01 in    
Wind  
Wind Speed 21 mph (South)    
Max Wind Speed 34 mph    
Max Gust Speed 40 mph    
Visibility 2 miles    
Events      
T = Trace of Precipitation, MM = Missing Value Source: NWS Daily Summary

Daily Weather History Graph

Daily Weather History Graph

Search for Another Location

Airport or City:

Trip Planner

Search our weather history database for the weather conditions in past years. The results will help you decide how hot, cold, wet, or windy it might be!

Date:

Astronomy

Dec. 22, 2013 Rise Set
Actual Time 6:46 AM CST 5:11 PM CST
Civil Twilight 6:20 AM CST 5:37 PM CST
Nautical Twilight 5:51 AM CST 6:06 PM CST
Astronomical Twilight 5:22 AM CST 6:34 PM CST
Moon 9:59 PM CST (12/22) 10:05 AM CST (12/22)
Length of Visible Light 11h 16m
Length of Day
10h 25m
Waning Gibbous, 76% of the Moon is Illuminated
Dec 22
Waning Gibbous
Dec 25
Last Quarter
Jan 1
New
Jan 7
First Quarter
Jan 15
Full

Hourly Weather History & Observations

Time (CST) Temp. Dew Point Humidity Pressure Visibility Wind Dir Wind Speed Gust Speed Precip Events Conditions
12:15 AM 75.2 °F 73.4 °F 94% 29.91 in 2.0 mi South 26.5 mph 34.5 mph N/A   Mostly Cloudy
12:35 AM 75.2 °F 73.4 °F 94% 29.91 in 2.0 mi South 28.8 mph 36.8 mph N/A   Mostly Cloudy
12:55 AM 75.2 °F 73.4 °F 94% 29.90 in 2.0 mi SSE 27.6 mph 35.7 mph N/A   Partly Cloudy
1:15 AM 75.2 °F 73.4 °F 94% 29.90 in 2.0 mi South 32.2 mph - N/A   Clear
1:35 AM 75.2 °F 73.4 °F 94% 29.90 in 2.0 mi South 31.1 mph 40.3 mph N/A   Clear
1:55 AM 75.2 °F 73.4 °F 94% 29.90 in 2.0 mi South 31.1 mph 39.1 mph N/A   Clear
2:15 AM 75.2 °F 73.4 °F 94% 29.89 in 2.5 mi South 32.2 mph 40.3 mph N/A   Clear
2:35 AM 75.2 °F 73.4 °F 94% 29.90 in 2.0 mi South 27.6 mph 38.0 mph N/A   Clear
2:55 AM 75.2 °F 73.4 °F 94% 29.90 in 2.0 mi South 28.8 mph 35.7 mph N/A   Clear
3:15 AM 75.2 °F 73.4 °F 94% 29.91 in 2.0 mi South 27.6 mph 38.0 mph N/A   Clear
3:35 AM 75.2 °F 73.4 °F 94% 29.91 in 2.5 mi South 25.3 mph 35.7 mph N/A   Clear
3:55 AM 75.2 °F 73.4 °F 94% 29.93 in 2.0 mi South 21.9 mph 31.1 mph N/A   Clear
4:15 AM 75.2 °F 73.4 °F 94% 29.93 in 2.0 mi South 23.0 mph 33.4 mph N/A   Clear
4:35 AM 75.2 °F 73.4 °F 94% 29.94 in 2.0 mi South 21.9 mph 28.8 mph N/A   Clear
4:55 AM 75.2 °F 73.4 °F 94% 29.94 in 2.0 mi South 21.9 mph 28.8 mph N/A   Partly Cloudy
5:15 AM 75.2 °F 73.4 °F 94% 29.94 in 2.0 mi South 21.9 mph 28.8 mph N/A   Clear
5:35 AM 75.2 °F 73.4 °F 94% 29.94 in 2.0 mi South 24.2 mph 29.9 mph N/A   Partly Cloudy
5:55 AM 75.2 °F 73.4 °F 94% 29.95 in 2.0 mi South 24.2 mph - N/A   Clear
6:15 AM 75.2 °F 73.4 °F 94% 29.96 in 2.0 mi South 23.0 mph - N/A   Clear
6:35 AM 75.2 °F 73.4 °F 94% 29.97 in 2.0 mi South 20.7 mph - N/A   Clear
6:55 AM 75.2 °F 73.4 °F 94% 29.97 in 2.0 mi South 21.9 mph - N/A   Clear
7:15 AM 75.2 °F 73.4 °F 94% 29.98 in 2.0 mi South 21.9 mph 27.6 mph N/A   Clear
7:35 AM 75.2 °F 73.4 °F 94% 29.99 in 2.0 mi South 19.6 mph 26.5 mph N/A   Clear
7:55 AM 75.2 °F 73.4 °F 94% 30.00 in 2.5 mi South 18.4 mph 26.5 mph N/A   Scattered Clouds
8:15 AM 75.2 °F 73.4 °F 94% 30.01 in 2.5 mi South 17.3 mph 26.5 mph N/A   Mostly Cloudy
8:35 AM 75.2 °F 73.4 °F 94% 30.02 in 2.5 mi South 16.1 mph 26.5 mph N/A   Overcast
8:55 AM 75.2 °F 73.4 °F 94% 30.03 in 2.5 mi South 13.8 mph 27.6 mph N/A   Overcast
9:15 AM 75.2 °F 73.4 °F 94% 30.04 in 2.5 mi South 13.8 mph 23.0 mph N/A   Overcast
9:35 AM 75.2 °F 73.4 °F 94% 30.04 in 2.5 mi South 12.7 mph 21.9 mph N/A   Overcast
9:55 AM 75.2 °F 73.4 °F 94% 30.05 in 2.5 mi South 11.5 mph 20.7 mph N/A   Mostly Cloudy
10:15 AM 75.2 °F 73.4 °F 94% 30.05 in 2.5 mi South 8.1 mph 16.1 mph N/A   Mostly Cloudy
10:35 AM 75.2 °F 73.4 °F 94% 30.05 in 2.5 mi South 8.1 mph 15.0 mph N/A   Scattered Clouds
10:55 AM 75.2 °F 73.4 °F 94% 30.05 in 2.5 mi South 11.5 mph 18.4 mph N/A   Scattered Clouds
11:15 AM 75.2 °F 73.4 °F 94% 30.04 in 2.5 mi South 8.1 mph 16.1 mph N/A   Scattered Clouds
11:35 AM 75.2 °F 73.4 °F 94% 30.04 in 2.0 mi South 11.5 mph - N/A   Clear
11:55 AM 77.0 °F 73.4 °F 89% 30.03 in 2.0 mi South 12.7 mph - N/A   Clear
12:15 PM 77.0 °F 73.4 °F 89% 30.02 in 2.0 mi South 12.7 mph - N/A   Clear
12:35 PM 77.0 °F 73.4 °F 89% 30.00 in 2.0 mi South 12.7 mph - N/A   Partly Cloudy
12:55 PM 77.0 °F 73.4 °F 89% 30.00 in 2.0 mi South 13.8 mph - N/A   Clear
1:15 PM 75.2 °F 73.4 °F 94% 29.99 in 2.0 mi South 13.8 mph - N/A   Scattered Clouds
1:35 PM 75.2 °F 73.4 °F 94% 29.98 in 2.0 mi South 15.0 mph - N/A   Scattered Clouds
1:55 PM 75.2 °F 73.4 °F 94% 29.98 in 2.0 mi South 15.0 mph - N/A   Scattered Clouds
2:15 PM 75.2 °F 73.4 °F 94% 29.98 in 2.0 mi South 13.8 mph - N/A   Scattered Clouds
2:35 PM 75.2 °F 73.4 °F 94% 29.98 in 2.0 mi South 12.7 mph 20.7 mph N/A   Scattered Clouds
2:55 PM 75.2 °F 73.4 °F 94% 29.99 in 2.0 mi South 10.4 mph 20.7 mph N/A   Scattered Clouds
3:15 PM 75.2 °F 73.4 °F 94% 29.99 in 2.0 mi South 10.4 mph 18.4 mph N/A   Partly Cloudy
3:35 PM 75.2 °F 73.4 °F 94% 30.00 in 2.5 mi SSW 8.1 mph - N/A   Scattered Clouds
3:55 PM 75.2 °F 73.4 °F 94% 30.00 in 2.0 mi South 9.2 mph - N/A   Scattered Clouds
4:15 PM 75.2 °F 73.4 °F 94% 30.01 in 2.0 mi South 11.5 mph - N/A   Scattered Clouds
4:35 PM 75.2 °F 73.4 °F 94% 30.02 in 2.0 mi South 8.1 mph 15.0 mph N/A   Mostly Cloudy
4:55 PM 75.2 °F 73.4 °F 94% 30.02 in 1.8 mi South 10.4 mph - N/A   Overcast
5:15 PM 75.2 °F 73.4 °F 94% 30.03 in 1.8 mi South 9.2 mph - N/A   Overcast
5:35 PM 75.2 °F 73.4 °F 94% 30.03 in 1.8 mi South 9.2 mph - N/A   Overcast
5:55 PM 75.2 °F 73.4 °F 94% 30.04 in 1.8 mi South 11.5 mph - N/A   Overcast
6:15 PM 75.2 °F 73.4 °F 94% 30.04 in 2.0 mi South 10.4 mph - N/A   Overcast
6:35 PM 75.2 °F 73.4 °F 94% 30.05 in 2.0 mi South 10.4 mph - N/A   Overcast
6:55 PM 75.2 °F 73.4 °F 94% 30.06 in 2.5 mi Variable 6.9 mph 13.8 mph N/A   Overcast
7:15 PM 75.2 °F 73.4 °F 94% 30.06 in 2.0 mi Variable 6.9 mph 13.8 mph N/A   Overcast
7:35 PM 75.2 °F 73.4 °F 94% 30.06 in 3.0 mi South 8.1 mph - N/A   Mostly Cloudy
7:55 PM 75.2 °F 73.4 °F 94% 30.06 in 2.0 mi South 9.2 mph - N/A   Partly Cloudy
8:15 PM 75.2 °F 73.4 °F 94% 30.06 in 2.0 mi South 10.4 mph 16.1 mph N/A   Partly Cloudy
8:35 PM 75.2 °F 73.4 °F 94% 30.06 in 3.0 mi Variable 5.8 mph 13.8 mph N/A   Mostly Cloudy
8:55 PM 71.6 °F 69.8 °F 94% 30.09 in 3.0 mi NNW 21.9 mph - N/A   Overcast
9:15 PM 68.0 °F 64.4 °F 88% 30.09 in 0.8 mi NNW 32.2 mph - N/A   Overcast
9:35 PM 66.2 °F 64.4 °F 94% 30.11 in 0.8 mi NNW 34.5 mph - N/A   Overcast
9:55 PM 66.2 °F 62.6 °F 88% 30.11 in 3.0 mi North 33.4 mph - N/A   Overcast
10:15 PM 66.2 °F 62.6 °F 88% 30.12 in 1.2 mi North 32.2 mph - N/A   Overcast
10:35 PM 66.2 °F 62.6 °F 88% 30.13 in 1.8 mi North 29.9 mph 35.7 mph N/A   Overcast
10:55 PM 64.4 °F 60.8 °F 88% 30.14 in 0.5 mi NNW 33.4 mph - N/A   Overcast
11:15 PM 64.4 °F 60.8 °F 88% 30.14 in 1.0 mi North 34.5 mph - N/A   Overcast
11:35 PM 64.4 °F 60.8 °F 88% 30.15 in 0.5 mi North 31.1 mph 39.1 mph N/A   Overcast
11:55 PM 64.4 °F 60.8 °F 88% 30.15 in 5.0 mi NNW 34.5 mph - N/A   Haze